{"data":{"norad_id":58454,"epoch":"2026-09-19T16:17:48.585984Z","epoch_age_seconds":217905,"freshness":"STALE","line1":"1 58454U 23183T   26262.67903456  .00004122  00000+0  15931-3 0  9991","line2":"2 58454  43.0047  25.9638 0001646 255.9054 104.1615 15.27561289156406","mean_motion":15.27561289,"eccentricity":0.0001646,"inclination_deg":43.0047,"raan_deg":25.9638,"arg_perigee_deg":255.9054,"mean_anomaly_deg":104.1615,"bstar":0.00015931,"rev_number":15640,"period_min":94.267903380995,"perigee_km":481.97576362317,"apogee_km":484.23448453042,"semimajor_km":6861.2421240768,"source":"CELESTRAK","updated_at":"2026-09-21T09:00:33.879022Z"}}